Binghamton, NY

10:57 PM EST on December 13, 2019 (GMT -0500)
Binghamton Regional-Link

Weather History for KBGM - May, 2019

Change the Weather History Date:

Thursday, May 23, 2019

  Actual Average Record
Temperature  
Mean Temperature 61 °F 58 °F  
Max Temperature 72 °F 68 °F 87 °F (1980)
Min Temperature 50 °F 48 °F 31 °F (1967)
Degree Days  
Heating Degree Days 4 8  
Month to date heating degree days 250 251  
Since 1 July heating degree days 7040 7050  
Cooling Degree Days 0 1  
Month to date cooling degree days 4 11  
Year to date cooling degree days 4 15  
Growing Degree Days 11 (Base 50)    
Moisture  
Dew Point 55 °F    
Average Humidity 72    
Maximum Humidity 96    
Minimum Humidity 47    
Precipitation  
Precipitation 0.24 in 0.12 in 0.78 in (2000)
Month to date precipitation 4.19 2.59  
Year to date precipitation 15.67 13.77  
Snow  
Snow 0.00 in 0.00 in T in (1963)
Month to date snowfall 0.0 0.1  
Since 1 July snowfall 81.4 83.4  
Snow Depth 0.00 in    
Sea Level Pressure  
Sea Level Pressure 29.99 in    
Wind  
Wind Speed 9 mph (SSW)    
Max Wind Speed 25 mph    
Max Gust Speed 34 mph    
Visibility 10 miles    
Events Rain    
T = Trace of Precipitation, MM = Missing Value Source: NWS Daily Summary

Daily Weather History Graph

Daily Weather History Graph

Search for Another Location

Airport or City:

Astronomy

May. 23, 2019 Rise Set
Actual Time 5:35 AM EDT 8:25 PM EDT
Civil Twilight 5:03 AM EDT 8:58 PM EDT
Nautical Twilight 4:21 AM EDT 9:40 PM EDT
Astronomical Twilight 3:33 AM EDT 10:28 PM EDT
Moon 12:07 AM EDT (5/23) 9:36 AM EDT (5/23)
Length of Visible Light 15h 55m
Length of Day
14h 49m
Waning Gibbous, 77% of the Moon is Illuminated
May 23
Waning Gibbous
May 26
Last Quarter
Jun 3
New
Jun 10
First Quarter
Jun 17
Full

Hourly Weather History & Observations

Time (EDT) Temp. Dew Point Humidity Pressure Visibility Wind Dir Wind Speed Gust Speed Precip Events Conditions
12:53 AM 57.9 °F 45.0 °F 62% 30.17 in 10.0 mi Calm Calm - 0.00 in   Overcast
1:53 AM 52.0 °F 48.9 °F 89% 30.16 in 3.0 mi South 8.1 mph - 0.13 in Rain Rain
2:53 AM 51.1 °F 48.9 °F 92% 30.13 in 10.0 mi South 4.6 mph - 0.01 in   Scattered Clouds
3:53 AM 50.0 °F 48.9 °F 96% 30.12 in 10.0 mi SSE 5.8 mph - N/A   Partly Cloudy
4:53 AM 51.1 °F 48.0 °F 89% 30.12 in 10.0 mi South 5.8 mph - N/A   Clear
5:53 AM 51.1 °F 48.0 °F 89% 30.12 in 10.0 mi South 5.8 mph - N/A   Clear
6:53 AM 51.1 °F 50.0 °F 96% 30.11 in 10.0 mi SSE 6.9 mph - N/A   Clear
7:53 AM 55.0 °F 52.0 °F 89% 30.10 in 10.0 mi South 8.1 mph - N/A   Clear
8:53 AM 59.0 °F 54.0 °F 83% 30.09 in 10.0 mi SSW 6.9 mph - N/A   Partly Cloudy
9:53 AM 57.0 °F 53.1 °F 87% 30.08 in 10.0 mi SSW 9.2 mph - 0.06 in Rain Light Rain
10:53 AM 59.0 °F 55.0 °F 87% 30.04 in 10.0 mi South 8.1 mph - 0.00 in   Mostly Cloudy
11:53 AM 64.0 °F 57.9 °F 80% 30.03 in 10.0 mi SSW 10.4 mph - N/A   Mostly Cloudy
12:53 PM 64.0 °F 57.9 °F 80% 30.00 in 10.0 mi SSW 8.1 mph - N/A   Clear
1:53 PM 64.0 °F 62.1 °F 93% 29.99 in 10.0 mi South 6.9 mph - 0.02 in Rain Light Rain
2:53 PM 68.0 °F 62.1 °F 81% 29.94 in 10.0 mi SSW 11.5 mph 17.3 mph 0.00 in   Partly Cloudy
3:53 PM 69.1 °F 62.1 °F 78% 29.91 in 10.0 mi SSW 13.8 mph 20.7 mph N/A   Scattered Clouds
4:53 PM 70.0 °F 61.0 °F 73% 29.86 in 10.0 mi SSW 9.2 mph 18.4 mph 0.00 in   Mostly Cloudy
5:23 PM 71.1 °F 61.0 °F 70% 29.86 in 10.0 mi SW 12.7 mph 26.5 mph N/A   Scattered Clouds
5:53 PM 71.1 °F 61.0 °F 70% 29.83 in 10.0 mi SW 12.7 mph 20.7 mph N/A   Partly Cloudy
6:53 PM 68.0 °F 62.1 °F 81% 29.81 in 9.0 mi WSW 5.8 mph - 0.01 in Rain Light Rain
7:53 PM 69.1 °F 63.0 °F 81% 29.81 in 10.0 mi SW 10.4 mph - 0.01 in   Clear
8:53 PM 69.1 °F 55.0 °F 61% 29.81 in 10.0 mi West 10.4 mph 20.7 mph N/A   Clear
9:53 PM 69.1 °F 48.0 °F 47% 29.84 in 10.0 mi West 15.0 mph 24.2 mph N/A   Partly Cloudy
10:53 PM 66.9 °F 50.0 °F 54% 29.84 in 10.0 mi WNW 12.7 mph 26.5 mph N/A   Clear
11:53 PM 66.0 °F 51.1 °F 59% 29.84 in 10.0 mi West 13.8 mph 20.7 mph N/A   Scattered Clouds